Location: Shepherdstown, WV
(39.4326°N, 77.8042°W)
Time: 06:26:51
(UTC-04:00)

SR - Pass Details

Date: 09 August 2021
Orbit: 581 x 874 km, 66.7° (Epoch: 24 September)

Event Time Altitude Azimuth Distance (km) Brightness Sun altitude
Rises 04:48:55 0° 201° (SSW) 3,441 - -15.9°
Reaches altitude 10° 04:51:26 10° 199° (SSW) 2,494 - -15.6°
Exits shadow 04:52:33 16° 198° (SSW) 2,087 ? -15.4°
Maximum altitude 04:57:13 72° 116° (ESE) 878 ? -14.6°
Drops below altitude 10° 05:02:42 10° 33° (NNE) 2,374 ? -13.8°
Sets 05:05:03 0° 32° (NNE) 3,264 ? -13.4°
